Location: Saratoga Springs
(43.0831°N, 73.7850°W)
Time: 20:48:52
(UTC-04:00)

Transit 2A Rocket - Pass Details

Date: 23 April 2024
Orbit: 584 x 909 km, 66.7° (Epoch: 24 May)

Event Time Altitude Azimuth Distance (km) Brightness Sun altitude
Rises 22:27:33 0° 306° (NW) 3,403 9.6 -24.8°
Reaches altitude 10° 22:32:24 10° 270° (W) 2,530 8.1 -25.3°
Maximum altitude 22:33:32 11° 258° (WSW) 2,500 7.9 -25.5°
Drops below altitude 10° 22:34:42 10° 247° (WSW) 2,551 7.8 -25.6°
Enters shadow 22:38:02 - 220° (SW) 3,090 8.0 -26.0°
